K9DC Weather Reports


Display with metric or nautical units.
time (UTC)temp
F
wind
direction
speed
MPH
gust
MPH
rain 1hr
in
rain 24hr
in
rain mn
in
humidity
%
barometer
mb
20260510225005 66 323 1.0 9.0 0.00 0.00 0.00 29 1017.2
20260510224503 67 321 2.0 9.0 0.00 0.00 0.00 30 1017.1
20260510224003 67 318 0.0 8.0 0.00 0.00 0.00 30 1017.2
20260510223504 67 0 0.0 0.0 0.00 0.00 0.00 28 1017.1
20260510223004 67 323 0.0 6.0 0.00 0.00 0.00 28 1017.1
20260510222503 67 320 0.0 6.0 0.00 0.00 0.00 30 1017.1
20260510222004 68 317 0.0 4.0 0.00 0.00 0.00 29 1017.1
20260510221503 68 312 0.0 2.0 0.00 0.00 0.00 28 1017.1
20260510221004 68 313 1.0 7.0 0.00 0.00 0.00 29 1017.1
20260510220505 68 312 2.0 11.0 0.00 0.00 0.00 30 1017.2
20260510220004 69 316 2.0 11.0 0.00 0.00 0.00 30 1017.1
20260510215505 69 324 2.0 11.0 0.00 0.00 0.00 27 1017.0
20260510215004 69 313 3.0 13.0 0.00 0.00 0.00 30 1017.1
20260510214503 69 302 1.0 13.0 0.00 0.00 0.00 30 1017.3
20260510214004 69 320 1.0 9.0 0.00 0.00 0.00 31 1017.1
20260510213504 69 320 1.0 9.0 0.00 0.00 0.00 28 1017.1
20260510213004 70 320 0.0 5.0 0.00 0.00 0.00 29 1017.2
20260510212503 70 318 2.0 11.0 0.00 0.00 0.00 29 1016.9
20260510212003 70 309 3.0 11.0 0.00 0.00 0.00 28 1016.9
20260510211504 70 310 3.0 12.0 0.00 0.00 0.00 28 1016.9
20260510211005 70 303 3.0 12.0 0.00 0.00 0.00 29 1016.9
20260510210504 70 302 4.0 15.0 0.00 0.00 0.00 31 1017.0
20260510210003 70 299 5.0 15.0 0.00 0.00 0.00 29 1016.9
20260510205503 70 305 5.0 12.0 0.00 0.00 0.00 32 1016.9
20260510205006 70 314 5.0 12.0 0.00 0.00 0.00 30 1016.9
20260510204503 70 317 3.0 12.0 0.00 0.00 0.00 30 1016.8
20260510204003 70 317 4.0 10.0 0.00 0.00 0.00 31 1016.7
20260510203506 71 316 4.0 13.0 0.00 0.00 0.00 31 1016.6
20260510203004 70 320 2.0 13.0 0.00 0.00 0.00 30 1016.6
20260510202503 71 316 0.0 4.0 0.00 0.00 0.00 32 1016.6
20260510202004 70 286 1.0 6.0 0.00 0.00 0.00 29 1016.5
20260510201503 70 289 3.0 9.0 0.00 0.00 0.00 28 1016.4
20260510201004 70 294 2.0 9.0 0.00 0.00 0.00 32 1016.5
20260510200505 70 323 1.0 8.0 0.00 0.00 0.00 29 1016.4
20260510200004 70 321 1.0 8.0 0.00 0.00 0.00 34 1016.4
20260510195503 70 316 0.0 5.0 0.00 0.00 0.00 35 1016.4
20260510195003 69 316 0.0 7.0 0.00 0.00 0.00 36 1016.4
20260510194504 69 320 2.0 14.0 0.00 0.00 0.00 32 1016.5
20260510194005 69 317 4.0 14.0 0.00 0.00 0.00 30 1016.5
20260510193503 70 319 4.0 14.0 0.00 0.00 0.00 30 1016.6
20260510193003 70 322 1.0 14.0 0.00 0.00 0.00 32 1016.5
20260510192503 70 312 2.0 7.0 0.00 0.00 0.00 33 1016.6
20260510192004 70 318 2.0 8.0 0.00 0.00 0.00 32 1016.6
20260510191504 69 325 1.0 8.0 0.00 0.00 0.00 30 1016.6
20260510191003 69 331 0.0 4.0 0.00 0.00 0.00 34 1016.6
20260510190504 69 329 0.0 4.0 0.00 0.00 0.00 30 1016.7
20260510190004 69 312 1.0 7.0 0.00 0.00 0.00 34 1016.8
20260510185503 69 303 3.0 11.0 0.00 0.00 0.00 33 1016.7
20260510185004 69 306 2.0 11.0 0.00 0.00 0.00 29 1016.8
20260510184505 70 46 1.0 6.0 0.00 0.00 0.00 31 1016.8
20260510184003 69 343 2.0 11.0 0.00 0.00 0.00 29 1016.9
20260510183503 69 306 4.0 12.0 0.00 0.00 0.00 35 1017.0
20260510183003 69 303 5.0 14.0 0.00 0.00 0.00 33 1017.0
20260510182504 70 313 2.0 14.0 0.00 0.00 0.00 32 1016.9
20260510182004 70 12 1.0 6.0 0.00 0.00 0.00 35 1017.0
20260510181504 69 355 1.0 6.0 0.00 0.00 0.00 36 1017.0
20260510181003 69 335 1.0 8.0 0.00 0.00 0.00 34 1017.1
20260510180503 69 330 0.0 8.0 0.00 0.00 0.00 33 1017.0
20260510180004 69 56 0.0 4.0 0.00 0.00 0.00 30 1017.1
20260510175505 70 58 1.0 6.0 0.00 0.00 0.00 34 1017.0
20260510175003 70 8 1.0 8.0 0.00 0.00 0.00 35 1017.0
20260510174503 69 334 1.0 8.0 0.00 0.00 0.00 34 1017.1
20260510174003 70 45 2.0 12.0 0.00 0.00 0.00 32 1017.0
20260510173504 69 55 2.0 12.0 0.00 0.00 0.00 37 1017.1
20260510173004 69 48 1.0 7.0 0.00 0.00 0.00 36 1017.1
20260510172503 69 348 0.0 5.0 0.00 0.00 0.00 35 1017.0
20260510172005 68 348 0.0 5.0 0.00 0.00 0.00 33 1017.1
20260510171503 68 348 0.0 5.0 0.00 0.00 0.00 32 1017.0
20260510171003 68 338 1.0 8.0 0.00 0.00 0.00 37 1017.0
20260510170504 68 335 1.0 8.0 0.00 0.00 0.00 33 1017.0
20260510170004 68 324 0.0 4.0 0.00 0.00 0.00 33 1016.9
20260510165503 68 319 0.0 4.0 0.00 0.00 0.00 32 1016.9
20260510165003 68 301 0.0 8.0 0.00 0.00 0.00 35 1017.0
20260510164505 67 314 2.0 11.0 0.00 0.00 0.00 33 1017.1
20260510164003 68 319 2.0 11.0 0.00 0.00 0.00 33 1017.1
20260510163504 68 334 1.0 11.0 0.00 0.00 0.00 33 1017.0
20260510163004 68 44 1.0 8.0 0.00 0.00 0.00 33 1016.7
20260510162503 68 337 1.0 9.0 0.00 0.00 0.00 39 1016.7
20260510162003 67 314 1.0 9.0 0.00 0.00 0.00 36 1016.5
20260510161503 68 319 0.0 4.0 0.00 0.00 0.00 36 1016.5
20260510161003 67 331 0.0 8.0 0.00 0.00 0.00 41 1016.6
20260510160504 67 25 1.0 9.0 0.00 0.00 0.00 40 1016.6
20260510160005 67 47 1.0 9.0 0.00 0.00 0.00 37 1016.5
20260510155505 68 15 0.0 7.0 0.00 0.00 0.00 36 1016.4
20260510155003 68 342 0.0 5.0 0.00 0.00 0.00 39 1016.4
20260510154503 68 72 1.0 8.0 0.00 0.00 0.00 39 1016.7
20260510154003 68 66 1.0 8.0 0.00 0.00 0.00 43 1016.7
20260510153503 67 39 0.0 7.0 0.00 0.00 0.00 44 1016.7
20260510153003 67 67 0.0 6.0 0.00 0.00 0.00 41 1016.6
20260510152504 67 76 1.0 4.0 0.00 0.00 0.00 39 1016.5
20260510152004 67 69 1.0 6.0 0.00 0.00 0.00 40 1016.4
20260510151503 66 63 0.0 6.0 0.00 0.00 0.00 40 1016.4
20260510151003 66 50 0.0 3.0 0.00 0.00 0.00 39 1016.3
20260510150505 66 53 0.0 7.0 0.00 0.00 0.00 41 1016.4
20260510150004 66 53 0.0 7.0 0.00 0.00 0.00 41 1016.4
20260510145504 65 53 0.0 7.0 0.00 0.00 0.00 41 1016.4
20260510145003 65 47 1.0 6.0 0.00 0.00 0.00 40 1016.2
20260510144505 65 50 1.0 6.0 0.00 0.00 0.00 43 1016.1
20260510144003 65 55 0.0 6.0 0.00 0.00 0.00 45 1016.1
20260510143503 65 0 0.0 0.0 0.00 0.00 0.00 41 1016.0
20260510143004 65 83 0.0 1.0 0.00 0.00 0.00 43 1016.0
20260510142503 65 83 0.0 1.0 0.00 0.00 0.00 41 1016.0
20260510142003 65 85 0.0 1.0 0.00 0.00 0.00 41 1016.0
20260510141505 65 85 0.0 4.0 0.00 0.00 0.00 41 1015.9
20260510141003 65 85 0.0 4.0 0.00 0.00 0.00 42 1015.9
20260510140504 64 86 0.0 4.0 0.00 0.00 0.00 44 1015.9
20260510140004 64 64 1.0 9.0 0.00 0.00 0.00 44 1015.8
20260510135503 63 62 1.0 9.0 0.00 0.00 0.00 45 1015.7
20260510135003 62 66 0.0 9.0 0.00 0.00 0.00 43 1015.6
20260510134504 61 65 1.0 8.0 0.00 0.00 0.00 46 1015.6
20260510134004 61 63 1.0 8.0 0.00 0.00 0.00 45 1015.4
20260510133503 60 60 0.0 6.0 0.00 0.00 0.00 44 1015.4
20260510133004 60 63 0.0 9.0 0.00 0.00 0.00 45 1015.4
20260510132503 59 63 1.0 9.0 0.00 0.00 0.00 48 1015.5
20260510132003 59 63 0.0 6.0 0.00 0.00 0.00 49 1015.4
20260510131504 59 63 0.0 6.0 0.00 0.00 0.00 48 1015.3
20260510131005 58 73 0.0 9.0 0.00 0.00 0.00 49 1015.2
20260510130504 58 75 0.0 9.0 0.00 0.00 0.00 52 1015.1
20260510130003 57 81 0.0 6.0 0.00 0.00 0.00 54 1015.0
20260510125503 57 73 0.0 6.0 0.00 0.00 0.00 57 1014.9
20260510125005 56 48 0.0 8.0 0.00 0.00 0.00 59 1014.8
20260510124505 56 43 0.0 8.0 0.00 0.00 0.00 61 1014.8
20260510124004 56 0 0.0 0.0 0.00 0.00 0.00 63 1014.7
20260510123503 55 44 0.0 6.0 0.00 0.00 0.00 66 1014.5
20260510123003 55 44 0.0 6.0 0.00 0.00 0.00 67 1014.3
20260510122503 54 0 0.0 0.0 0.00 0.00 0.00 66 1014.2
20260510122004 54 0 0.0 0.0 0.00 0.00 0.00 68 1014.2
20260510121503 54 0 0.0 0.0 0.00 0.00 0.00 70 1014.2
20260510121004 53 42 0.0 2.0 0.00 0.00 0.00 70 1014.1
20260510120504 53 42 0.0 2.0 0.00 0.00 0.00 71 1014.0
20260510120004 52 43 0.0 1.0 0.00 0.00 0.00 73 1013.9
20260510115504 52 59 1.0 5.0 0.00 0.00 0.00 73 1013.9
20260510115003 52 59 1.0 5.0 0.00 0.00 0.00 73 1013.8
20260510114504 52 59 1.0 5.0 0.00 0.00 0.00 72 1013.6
20260510114004 52 59 1.0 5.0 0.00 0.00 0.00 72 1013.7
20260510113503 52 59 1.0 5.0 0.00 0.00 0.00 71 1013.5
20260510113004 52 59 1.0 5.0 0.00 0.00 0.00 71 1013.5
20260510112503 52 59 1.0 5.0 0.00 0.00 0.00 71 1013.4
20260510112003 52 59 1.0 5.0 0.00 0.00 0.00 71 1013.5
20260510111504 52 59 1.0 5.0 0.00 0.00 0.00 70 1013.4
20260510111004 52 59 1.0 5.0 0.00 0.00 0.00 70 1013.2
20260510110504 52 59 1.0 5.0 0.00 0.00 0.00 69 1012.9
20260510110005 53 59 1.0 5.0 0.00 0.00 0.00 69 1012.6
20260510105503 53 59 1.0 5.0 0.00 0.00 0.00 69 1012.6
20260510105004 53 59 1.0 5.0 0.00 0.00 0.00 69 1012.5
20260510104504 53 59 1.0 5.0 0.00 0.00 0.00 68 1012.4
20260510104004 53 59 1.0 5.0 0.00 0.00 0.00 68 1012.3
20260510103504 54 59 1.0 5.0 0.00 0.00 0.00 67 1012.3
20260510103004 54 59 1.0 5.0 0.00 0.00 0.00 67 1012.2
20260510102504 54 59 1.0 5.0 0.00 0.00 0.00 66 1012.1
20260510102004 54 59 1.0 5.0 0.00 0.00 0.00 66 1012.1
20260510101505 54 59 1.0 5.0 0.00 0.00 0.00 65 1012.1
20260510101004 55 59 1.0 5.0 0.00 0.00 0.00 65 1012.0
20260510100503 55 59 1.0 5.0 0.00 0.00 0.00 65 1012.0
20260510100003 55 59 1.0 5.0 0.00 0.00 0.00 64 1012.0
20260510095504 56 59 1.0 5.0 0.00 0.00 0.00 64 1012.1
20260510095004 56 59 1.0 5.0 0.00 0.00 0.00 63 1012.2
20260510094504 56 59 1.0 5.0 0.00 0.00 0.00 63 1012.2
20260510094004 56 59 1.0 5.0 0.00 0.00 0.00 62 1012.2
20260510093503 57 59 1.0 5.0 0.00 0.00 0.00 61 1012.2
20260510093003 57 59 1.0 5.0 0.00 0.00 0.00 61 1012.1
20260510092505 57 59 1.0 5.0 0.00 0.00 0.00 60 1012.0
20260510092003 58 59 1.0 5.0 0.00 0.00 0.00 60 1011.8
20260510091504 58 59 1.0 5.0 0.00 0.00 0.00 60 1011.8
20260510091003 58 59 1.0 5.0 0.00 0.00 0.00 60 1011.9
20260510090504 58 59 1.0 5.0 0.00 0.00 0.00 59 1011.8
20260510090004 58 59 1.0 5.0 0.00 0.00 0.00 58 1011.8
20260510085503 58 59 1.0 5.0 0.00 0.00 0.00 60 1011.8
20260510085003 59 59 1.0 5.0 0.00 0.00 0.00 57 1011.4
20260510084503 59 59 1.0 5.0 0.00 0.00 0.00 56 1011.4
20260510084004 59 59 1.0 5.0 0.00 0.00 0.00 55 1011.4
20260510083505 59 59 1.0 5.0 0.00 0.00 0.00 55 1011.3
20260510083003 59 59 1.0 5.0 0.00 0.00 0.00 55 1011.3
20260510082503 59 59 1.0 5.0 0.00 0.00 0.00 54 1011.3
20260510082004 59 59 1.0 5.0 0.00 0.00 0.00 53 1011.3
20260510081503 59 59 1.0 5.0 0.00 0.00 0.00 53 1011.1
20260510081003 60 59 1.0 5.0 0.00 0.00 0.00 53 1010.9
20260510080503 60 59 1.0 5.0 0.00 0.00 0.00 53 1010.7
20260510080003 60 59 1.0 5.0 0.00 0.00 0.00 53 1010.8
20260510075505 60 59 1.0 5.0 0.00 0.00 0.00 53 1010.7
20260510075003 60 59 1.0 5.0 0.00 0.00 0.00 52 1010.7
20260510074503 60 59 1.0 5.0 0.00 0.00 0.00 52 1010.6
20260510074004 60 59 1.0 5.0 0.00 0.00 0.00 53 1010.5
20260510073504 60 59 1.0 5.0 0.00 0.00 0.00 52 1010.4
20260510073004 60 59 1.0 5.0 0.00 0.00 0.00 52 1010.4
20260510072503 60 59 1.0 5.0 0.00 0.00 0.00 53 1010.3
20260510072003 61 59 1.0 5.0 0.00 0.00 0.00 52 1010.2
20260510071504 61 59 1.0 5.0 0.00 0.00 0.00 51 1010.1
20260510071004 61 59 1.0 5.0 0.00 0.00 0.00 53 1010.1
20260510070504 61 59 1.0 5.0 0.00 0.00 0.00 53 1010.2
20260510070004 61 59 1.0 5.0 0.00 0.00 0.00 54 1010.4
20260510065505 61 59 1.0 5.0 0.00 0.00 0.00 56 1010.3
20260510065003 61 60 1.0 6.0 0.00 0.00 0.00 57 1010.2
20260510064503 62 60 1.0 7.0 0.00 0.00 0.00 60 1010.2
20260510064004 62 60 1.0 7.0 0.00 0.00 0.00 64 1010.0
20260510063504 62 46 1.0 6.0 0.00 0.00 0.00 65 1009.9
20260510063003 62 26 1.0 6.0 0.00 0.00 0.00 64 1009.9
20260510062504 62 9 1.0 6.0 0.00 0.00 0.00 68 1009.9
20260510062004 62 332 0.0 8.0 0.00 0.00 0.00 69 1010.1
20260510061504 62 308 1.0 8.0 0.00 0.00 0.00 73 1010.1
20260510061003 62 292 1.0 8.0 0.00 0.00 0.00 76 1010.0
20260510060503 62 270 0.0 3.0 0.00 0.00 0.00 77 1009.8
20260510060003 62 270 0.0 1.0 0.00 0.00 0.00 77 1009.7
20260510055504 62 0 0.0 0.0 0.00 0.00 0.00 76 1009.6
20260510055005 62 0 0.0 0.0 0.00 0.00 0.00 76 1009.4
20260510054503 63 270 0.0 2.0 0.00 0.00 0.00 76 1009.4
20260510054003 63 270 0.0 2.0 0.00 0.00 0.00 76 1009.5
20260510053504 63 270 0.0 3.0 0.00 0.00 0.00 76 1009.5
20260510053005 63 270 0.0 3.0 0.00 0.00 0.00 75 1009.5
20260510052503 63 0 0.0 0.0 0.00 0.00 0.00 75 1009.5
20260510052003 64 270 0.0 2.0 0.00 0.00 0.00 75 1009.3
20260510051503 64 270 1.0 3.0 0.00 0.00 0.00 75 1009.5
20260510051004 64 270 1.0 3.0 0.00 0.00 0.00 75 1009.4
20260510050504 64 270 1.0 3.0 0.00 0.00 0.00 74 1009.4
20260510050004 64 270 1.0 3.0 0.00 0.00 0.00 74 1009.3
20260510045503 64 270 1.0 4.0 0.00 0.00 0.00 74 1009.3
20260510045003 64 270 2.0 7.0 0.00 0.00 0.00 73 1009.2
20260510044505 64 278 2.0 7.0 0.00 0.00 0.00 73 1009.2
20260510044003 64 285 2.0 4.0 0.00 0.00 0.00 73 1009.3
20260510043504 64 285 0.0 3.0 0.00 0.00 0.00 73 1009.2
20260510043004 65 285 1.0 4.0 0.00 0.00 0.00 72 1009.1
20260510042503 65 285 2.0 6.0 0.00 0.00 0.00 72 1009.3
20260510042003 65 284 2.0 6.0 0.00 0.00 0.00 72 1009.3
20260510041503 65 284 3.0 6.0 0.00 0.00 0.00 71 1009.3
20260510041003 65 283 2.0 6.0 0.00 0.00 0.00 71 1009.3
20260510040504 65 283 3.0 8.0 0.00 0.00 0.00 71 1009.2
20260510040004 65 279 4.0 10.0 0.00 0.00 0.00 71 1009.1
20260510035503 65 276 4.0 10.0 0.00 0.00 0.00 71 1009.1
20260510035004 65 278 4.0 10.0 0.00 0.00 0.00 71 1009.1
20260510034504 65 286 5.0 12.0 0.00 0.00 0.00 71 1009.1
20260510034004 65 293 4.0 12.0 0.00 0.00 0.00 71 1009.0
20260510033503 64 303 4.0 12.0 0.00 0.00 0.00 71 1009.2
20260510033004 64 287 4.0 12.0 0.00 0.00 0.00 71 1009.2
20260510032503 64 254 3.0 8.0 0.00 0.00 0.00 72 1008.9
20260510032003 64 251 3.0 8.0 0.00 0.00 0.00 71 1008.7
20260510031504 64 248 3.0 10.0 0.00 0.00 0.00 72 1008.8
20260510031003 64 247 3.0 10.0 0.00 0.00 0.00 71 1008.8
20260510030503 64 250 3.0 9.0 0.00 0.00 0.00 71 1008.7
20260510030005 64 245 4.0 9.0 0.00 0.00 0.00 70 1008.6
20260510025504 64 243 3.0 9.0 0.00 0.00 0.00 70 1008.6
20260510025004 64 241 2.0 8.0 0.00 0.00 0.00 69 1008.6
20260510024503 64 235 2.0 9.0 0.00 0.00 0.00 69 1008.5
20260510024004 64 237 2.0 9.0 0.00 0.00 0.00 68 1008.5
20260510023504 64 240 3.0 6.0 0.00 0.00 0.00 68 1008.5
20260510023004 65 242 3.0 8.0 0.00 0.00 0.00 68 1008.5
20260510022503 65 242 3.0 9.0 0.00 0.00 0.00 67 1008.4
20260510022003 65 238 3.0 9.0 0.00 0.00 0.00 67 1008.4
20260510021504 65 242 3.0 7.0 0.00 0.00 0.00 67 1008.2
20260510021004 66 251 2.0 6.0 0.00 0.00 0.00 66 1008.2
20260510020503 66 250 2.0 8.0 0.00 0.00 0.00 66 1008.1
20260510020004 66 253 2.0 8.0 0.00 0.00 0.00 65 1008.0
20260510015504 66 253 2.0 7.0 0.00 0.00 0.00 65 1007.9
20260510015004 66 241 3.0 7.0 0.00 0.00 0.00 64 1007.8
20260510014503 67 239 2.0 7.0 0.00 0.00 0.00 63 1007.8
20260510014003 67 242 2.0 7.0 0.00 0.00 0.00 63 1007.7
20260510013503 68 240 2.0 7.0 0.00 0.00 0.00 61 1007.6
20260510013005 68 245 2.0 7.0 0.00 0.00 0.00 61 1007.5
20260510012504 68 247 2.0 5.0 0.00 0.00 0.00 60 1007.4
20260510012004 69 245 3.0 9.0 0.00 0.00 0.00 59 1007.4
20260510011503 69 245 4.0 10.0 0.00 0.00 0.00 59 1007.4
20260510011004 69 242 3.0 10.0 0.00 0.00 0.00 58 1007.3
20260510010504 69 245 3.0 9.0 0.00 0.00 0.00 58 1007.2
20260510010005 70 250 5.0 11.0 0.00 0.00 0.00 57 1007.1
20260510005503 70 251 5.0 12.0 0.00 0.00 0.00 57 1007.1
20260510005003 70 253 4.0 12.0 0.00 0.00 0.00 57 1007.0
20260510004505 70 252 4.0 10.0 0.00 0.00 0.00 56 1007.0
20260510004004 70 251 6.0 12.0 0.00 0.00 0.00 56 1006.9
20260510003504 70 255 5.0 14.0 0.00 0.00 0.00 55 1007.0
20260510003005 71 257 4.0 14.0 0.00 0.00 0.00 55 1006.8
20260510002503 71 255 5.0 10.0 0.00 0.00 0.00 55 1006.8
20260510002004 71 254 4.0 8.0 0.00 0.00 0.00 56 1006.7
20260510001504 71 261 4.0 11.0 0.00 0.00 0.00 55 1006.7
20260510001003 71 263 5.0 12.0 0.00 0.00 0.00 55 1006.7
20260510000503 71 261 7.0 16.0 0.00 0.00 0.00 54 1006.7
20260510000004 71 263 7.0 16.0 0.00 0.00 0.00 54 1006.7
20260509235504 72 260 6.0 12.0 0.00 0.00 0.00 53 1006.6
20260509235003 72 266 6.0 12.0 0.00 0.00 0.00 53 1006.5
20260509234503 72 264 6.0 13.0 0.00 0.00 0.00 52 1006.5
20260509234003 72 260 7.0 15.0 0.00 0.00 0.00 51 1006.4
20260509233504 72 269 8.0 15.0 0.00 0.00 0.00 51 1006.4
20260509233004 72 270 7.0 15.0 0.00 0.00 0.00 51 1006.4
20260509232503 72 266 8.0 18.0 0.00 0.00 0.00 51 1006.4
20260509232003 72 263 10.0 20.0 0.00 0.00 0.00 51 1006.3
20260509231503 72 263 9.0 20.0 0.00 0.00 0.00 51 1006.4
20260509231003 73 267 8.0 15.0 0.00 0.00 0.00 50 1006.3
20260509230504 73 274 8.0 16.0 0.00 0.00 0.00 50 1006.3
20260509230005 73 271 9.0 16.0 0.00 0.00 0.00 49 1006.3
20260509225503 73 265 8.0 16.0 0.00 0.00 0.00 49 1006.3